Hanamaulu, HI

8:02 AM HST on February 08, 2016 (GMT -1000)
Lihue

Weather History for PHLI - February, 2012

Change the Weather History Date:

Sunday, February 12, 2012

  Actual Average Record
Temperature  
Mean Temperature 76 °F 72 °F  
Max Temperature 80 °F 78 °F 85 °F (1986)
Min Temperature 72 °F 65 °F 55 °F (1963)
Degree Days  
Heating Degree Days 0 0  
Month to date heating degree days 0 0  
Since 1 July heating degree days 0 0  
Cooling Degree Days 11 7  
Month to date cooling degree days 81 84  
Year to date cooling degree days 351 293  
Growing Degree Days 26 (Base 50)    
Moisture  
Dew Point 66 °F    
Average Humidity 73    
Maximum Humidity 79    
Minimum Humidity 67    
Precipitation  
Precipitation 0.00 in 0.10 in 0.87 in (1985)
Month to date precipitation 0.18 1.32  
Year to date precipitation 4.36 5.07  
Snow  
Snow 0.00 in - - ()
Month to date snowfall 0.0  
Since 1 July snowfall 0.0  
Snow Depth 0.00 in    
Sea Level Pressure  
Sea Level Pressure 30.22 in    
Wind  
Wind Speed 13 mph (East)    
Max Wind Speed 16 mph    
Max Gust Speed 20 mph    
Visibility 10 miles    
Events      
T = Trace of Precipitation, MM = Missing Value Source: NWS Daily Summary

Daily Weather History Graph

Daily Weather History Graph

Search for Another Location

Airport or City:

Trip Planner

Search our weather history database for the weather conditions in past years. The results will help you decide how hot, cold, wet, or windy it might be!

Date:

Astronomy

Feb. 12, 2012 Rise Set
Actual Time 7:10 AM HST 6:32 PM HST
Civil Twilight 6:47 AM HST 6:55 PM HST
Nautical Twilight 6:21 AM HST 7:22 PM HST
Astronomical Twilight 5:55 AM HST 7:48 PM HST
Moon 11:49 PM HST (2/12) 10:26 AM HST (2/12)
Length of Visible Light 12h 08m
Length of Day
11h 22m
Waning Gibbous, 70% of the Moon is Illuminated
Feb 12
Waning Gibbous
Feb 14
Last Quarter
Feb 21
New
Feb 29
First Quarter
Mar 7
Full

Hourly Weather History & Observations

Time (HST) Temp. Dew Point Humidity Pressure Visibility Wind Dir Wind Speed Gust Speed Precip Events Conditions
12:39 AM 73.4 °F 64.4 °F 73% 30.25 in 10.0 mi ENE 11.5 mph - N/A   Overcast
12:53 AM 73.0 °F 64.9 °F 76% 30.24 in 10.0 mi East 13.8 mph - N/A   Overcast
1:53 AM 73.0 °F 64.9 °F 76% 30.23 in 10.0 mi East 13.8 mph - N/A   Overcast
2:01 AM 73.4 °F 64.4 °F 73% 30.23 in 10.0 mi East 13.8 mph - N/A   Overcast
2:08 AM 73.4 °F 64.4 °F 73% 30.23 in 10.0 mi East 15.0 mph - N/A   Overcast
2:53 AM 73.0 °F 64.9 °F 76% 30.21 in 10.0 mi East 13.8 mph - N/A   Overcast
3:26 AM 73.4 °F 64.4 °F 73% 30.21 in 10.0 mi East 12.7 mph - N/A   Overcast
3:43 AM 73.4 °F 64.4 °F 73% 30.21 in 10.0 mi East 15.0 mph - N/A   Overcast
3:53 AM 73.0 °F 64.9 °F 76% 30.20 in 10.0 mi ENE 12.7 mph - N/A   Overcast
4:53 AM 73.0 °F 64.9 °F 76% 30.21 in 10.0 mi East 12.7 mph - N/A   Overcast
5:53 AM 73.0 °F 64.0 °F 73% 30.22 in 10.0 mi East 12.7 mph - N/A   Overcast
6:53 AM 73.0 °F 64.9 °F 76% 30.23 in 10.0 mi East 13.8 mph - N/A   Mostly Cloudy
7:53 AM 73.0 °F 64.0 °F 73% 30.25 in 10.0 mi ENE 13.8 mph - N/A   Clear
8:53 AM 73.9 °F 66.0 °F 76% 30.25 in 10.0 mi East 11.5 mph - N/A   Overcast
9:53 AM 77.0 °F 66.0 °F 69% 30.26 in 10.0 mi East 11.5 mph - N/A   Scattered Clouds
10:53 AM 75.9 °F 66.0 °F 71% 30.26 in 10.0 mi East 12.7 mph - N/A   Mostly Cloudy
11:53 AM 78.1 °F 66.0 °F 66% 30.23 in 10.0 mi East 15.0 mph - N/A   Scattered Clouds
12:53 PM 79.0 °F 66.9 °F 66% 30.21 in 10.0 mi East 12.7 mph - N/A   Mostly Cloudy
1:53 PM 79.0 °F 66.9 °F 66% 30.18 in 10.0 mi East 13.8 mph - N/A   Scattered Clouds
2:53 PM 78.1 °F 68.0 °F 71% 30.17 in 10.0 mi East 11.5 mph - N/A   Scattered Clouds
3:53 PM 78.1 °F 68.0 °F 71% 30.16 in 10.0 mi East 12.7 mph - N/A   Scattered Clouds
4:53 PM 75.9 °F 68.0 °F 76% 30.17 in 10.0 mi ENE 10.4 mph - N/A   Mostly Cloudy
5:53 PM 73.9 °F 66.9 °F 79% 30.18 in 10.0 mi ENE 12.7 mph - N/A   Scattered Clouds
6:53 PM 73.9 °F 66.9 °F 79% 30.19 in 10.0 mi ENE 12.7 mph - N/A   Mostly Cloudy
7:53 PM 73.0 °F 66.9 °F 81% 30.20 in 10.0 mi East 13.8 mph - N/A   Scattered Clouds
8:53 PM 73.0 °F 66.9 °F 81% 30.22 in 10.0 mi East 12.7 mph - N/A   Partly Cloudy
9:53 PM 73.9 °F 66.9 °F 79% 30.23 in 10.0 mi East 11.5 mph - N/A   Overcast
10:53 PM 73.0 °F 66.9 °F 81% 30.23 in 10.0 mi East 13.8 mph - N/A   Overcast
11:53 PM 73.9 °F 66.9 °F 79% 30.22 in 10.0 mi East 16.1 mph - N/A   Overcast